DLH4YE EDDF-EPWA

Flight info

Callsign DLH4YE
Flight time N/A
Altitude 37000
Route SULUS4D/07C SULUS L984 OKG DCT BALTU DCT LEGAZ DCT LAGAR DCT OKENO Q277 AGAVA
Aircraft A319/M-SDE2E3FGIJ1LORWXYZ/HB1

Departure

Time N/A
Airport Frankfurt Main Airport (EDDF)

Arrival

Time 2026-04-30 18:08
Airport Warsaw Chopin Airport (EPWA)
Time Latitude Longitude Altitude Speed Heading
2026-04-30 17:39 51.43829 18.01081 37396 ft 391 kts 65°
2026-04-30 17:41 51.51306 18.34049 36487 ft 393 kts 65°
2026-04-30 17:42 51.53144 18.42237 35990 ft 386 kts 65°
2026-04-30 17:42 51.55816 18.54216 35260 ft 374 kts 65°
2026-04-30 17:43 51.57007 18.62323 34777 ft 377 kts 80°
2026-04-30 17:44 51.57178 18.74782 34035 ft 368 kts 81°
2026-04-30 17:44 51.57329 18.86977 32927 ft 360 kts 81°
2026-04-30 17:46 51.57556 19.06836 30408 ft 352 kts 80°
2026-04-30 17:47 51.57696 19.22267 28547 ft 338 kts 81°
2026-04-30 17:48 51.57820 19.37131 26777 ft 332 kts 81°
2026-04-30 17:48 51.57903 19.48240 25380 ft 331 kts 81°
2026-04-30 17:49 51.57995 19.63120 23389 ft 333 kts 82°
2026-04-30 17:50 51.59025 19.77301 21162 ft 314 kts 57°
2026-04-30 17:51 51.62043 19.86517 19820 ft 306 kts 58°
2026-04-30 17:52 51.64852 19.95150 19117 ft 284 kts 58°
2026-04-30 17:53 51.69394 20.09150 17030 ft 280 kts 58°
2026-04-30 17:54 51.72956 20.20186 15549 ft 277 kts 58°
2026-04-30 17:55 51.76480 20.31181 14133 ft 275 kts 59°
2026-04-30 17:56 51.79957 20.42053 12614 ft 272 kts 59°
2026-04-30 17:57 51.82547 20.50166 11482 ft 270 kts 59°
2026-04-30 17:58 51.85092 20.58220 10392 ft 267 kts 59°
2026-04-30 17:59 51.88436 20.68801 8778 ft 263 kts 59°
2026-04-30 18:00 51.91723 20.79248 7149 ft 258 kts 59°
2026-04-30 18:00 51.94148 20.86992 5841 ft 256 kts 59°
2026-04-30 18:01 51.95731 20.92066 5170 ft 246 kts 60°
2026-04-30 18:02 51.97888 20.99004 4620 ft 219 kts 60°
2026-04-30 18:02 51.99909 21.05502 3762 ft 212 kts 60°
2026-04-30 18:03 52.02914 21.08472 3243 ft 179 kts 334°
2026-04-30 18:04 52.06143 21.05794 2515 ft 167 kts 333°
2026-04-30 18:05 52.09720 21.02690 1721 ft 126 kts 333°
2026-04-30 18:06 52.12743 21.00045 1011 ft 123 kts 332°
2026-04-30 18:07 52.15731 20.97445 372 ft 121 kts 333°
2026-04-30 18:08 52.16937 20.96512 361 ft 18 kts
2026-04-30 18:09 52.17088 20.96566 363 ft 0 kts 60°
2026-04-30 18:10 52.17095 20.96586 363 ft 5 kts 60°
2026-04-30 18:11 52.17240 20.96769 362 ft 10 kts 330°
2026-04-30 18:11 52.17308 20.96742 362 ft 8 kts 19°
2026-04-30 18:12 52.17337 20.96867 362 ft 0 kts 82°
2026-04-30 18:15 52.17337 20.96868 362 ft 0 kts 82°